Location: Holcomb Observatory
(44.4922°N, 73.1654°W)
Time: 04:06:00
(UTC-04:00)

Cosmos 2360 Rocket - Visible Passes

Search period start: 02 July 2015 00:00
Search period end: 12 July 2015 00:00
Orbit: 833 x 846 km, 71.0° (Epoch: 01 July)

Date Brightness Start Highest point End Pass type
(mag) Time Alt. Az. Time Alt. Az. Time Alt. Az.
02 Jul 3.9 01:23:45 10° WNW 01:27:31 18° W 01:28:01 17° WSW visible
02 Jul 4.4 21:40:23 10° N 21:43:09 14° NE 21:46:06 10° ENE visible
02 Jul 2.3 23:22:45 10° NNW 23:28:24 67° ENE 23:30:51 34° SE visible
03 Jul 3.8 01:07:58 10° WNW 01:11:54 19° W 01:12:36 18° WSW visible
03 Jul 4.4 21:24:54 10° NNE 21:27:26 13° NE 21:30:10 10° ENE visible
03 Jul 2.4 23:07:08 10° NNW 23:12:45 63° ENE 23:15:27 31° SE visible
04 Jul 3.8 00:52:13 10° NW 00:56:19 20° W 00:57:12 19° WSW visible
04 Jul 2.5 22:51:30 10° NNW 22:57:07 59° ENE 23:00:05 28° SE visible
05 Jul 3.7 00:36:28 10° NW 00:40:43 22° WSW 00:41:50 20° WSW visible
05 Jul 2.5 22:35:54 10° NNW 22:41:28 56° ENE 22:44:45 24° SE visible
06 Jul 3.7 00:20:44 10° NW 00:25:07 23° WSW 00:26:31 21° WSW visible
06 Jul 2.6 22:20:17 10° NNW 22:25:49 53° ENE 22:29:27 21° SE visible
07 Jul 3.7 00:05:00 10° NW 00:09:31 24° WSW 00:11:13 21° SW visible
07 Jul 2.7 22:04:40 10° NNW 22:10:10 50° ENE 22:14:11 18° SE visible
07 Jul 3.6 23:49:16 10° NW 23:53:55 26° WSW 23:55:58 21° SW visible
08 Jul 2.7 21:49:04 10° NNW 21:54:31 47° ENE 21:58:58 15° SE visible
08 Jul 3.6 23:33:34 10° NW 23:38:19 28° WSW 23:40:44 20° SW visible
09 Jul 2.8 21:33:28 10° NNW 21:38:52 44° ENE 21:43:46 12° SE visible
09 Jul 3.5 23:17:52 10° NW 23:22:43 29° WSW 23:25:33 19° SSW visible
10 Jul 2.9 21:17:51 10° NNW 21:23:13 42° ENE 21:28:33 10° SE visible
10 Jul 3.5 23:02:09 10° NW 23:07:06 31° WSW 23:10:24 17° SSW visible
11 Jul 3.0 21:02:15 10° NNW 21:07:33 40° NE 21:12:50 10° SE visible
11 Jul 3.4 22:46:28 10° NW 22:51:30 33° WSW 22:55:18 15° SSW visible
